START_TIME,STEP,MOV.,A46,t_acc.,A13,t_acc.,M47,t_acc.,A17,t_acc.,A28,t_acc.,M38,t_acc.
1979-03-06 18:00:23.130 ,1,0,,0,6.,4.8,1.,4.8,,0,0.,4.8,7.,4.8
1979-03-06 18:00:27.930 ,1,0,,0,4.,4.8,1.,4.8,,0,0.,4.8,1.,4.8
1979-03-06 18:00:32.730 ,1,0,,0,0.,4.8,0.,4.8,,0,0.,4.8,0.,4.8
1979-03-06 18:00:37.530 ,1,0,,0,0.,4.8,0.,4.8,,0,0.,4.8,2.,4.8
1979-03-06 18:00:42.330 ,1,0,,0,0.,4.8,0.,4.8,,0,0.,4.8,2.,4.8
1979-03-06 18:00:47.130 ,0,0,,0,0.,4.8,0.,4.8,,0,0.,4.8,1.,4.8
1979-03-06 18:00:51.930 ,0,0,,0,0.,4.8,0.,4.8,,0,0.,4.8,0.,4.8
1979-03-06 18:00:56.730 ,0,0,,0,2.,4.8,0.,4.8,,0,0.,4.8,0.,4.8
1979-03-06 18:01:01.530 ,0,0,,0,0.,4.8,0.,4.8,,0,0.,4.8,0.,4.8
1979-03-06 18:01:06.330 ,0,0,,0,0.,4.8,0.,4.8,,0,0.,4.8,0.,4.8
1979-03-06 18:01:11.130 ,0,0,,0,1.,4.8,0.,4.8,,0,0.,4.8,0.,4.8
1979-03-06 18:01:15.930 ,0,0,,0,0.,4.8,0.,4.8,,0,0.,4.8,0.,4.8
1979-03-06 18:01:20.730 ,0,0,,0,0.,4.8,0.,4.8,,0,0.,4.8,0.,4.8
1979-03-06 18:01:25.530 ,0,0,,0,0.,4.8,0.,4.8,,0,0.,4.8,0.,4.8
1979-03-06 18:01:30.330 ,0,0,,0,0.,4.8,0.,4.8,,0,0.,4.8,0.,4.8
1979-03-06 18:01:35.130 ,1,0,,0,0.,4.8,0.,4.8,,0,0.,4.8,0.,4.8
1979-03-06 18:01:39.930 ,1,0,,0,0.,4.8,0.,4.8,,0,0.,4.8,0.,4.8
1979-03-06 18:01:44.730 ,1,0,,0,1.,4.8,0.,4.8,,0,0.,4.8,0.,4.8
1979-03-06 18:01:49.530 ,1,0,,0,2.,4.8,1.,4.8,,0,0.,4.8,1.,4.8
1979-03-06 18:01:54.330 ,1,0,,0,2.,4.8,1.,4.8,,0,0.,4.8,1.,4.8
1979-03-06 18:01:59.130 ,2,0,,0,1.,4.8,0.,4.8,,0,0.,4.8,1.,4.8
1979-03-06 18:02:03.930 ,2,0,,0,1.,4.8,1.,4.8,,0,0.,4.8,1.,4.8
1979-03-06 18:02:08.730 ,2,0,,0,1.,4.8,0.,4.8,,0,0.,4.8,0.,4.8
1979-03-06 18:02:13.530 ,2,0,,0,0.,4.8,0.,4.8,,0,0.,4.8,4.,4.8
1979-03-06 18:02:18.330 ,2,0,,0,0.,4.8,0.,4.8,,0,0.,4.8,3.,4.8
1979-03-06 18:02:23.130 ,3,0,,0,0.,4.8,0.,4.8,,0,0.,4.8,3.,4.8
1979-03-06 18:02:27.930 ,3,0,,0,0.,4.8,0.,4.8,,0,0.,4.8,3.,4.8
1979-03-06 18:02:32.730 ,3,0,,0,2.,4.8,2.,4.8,,0,0.,4.8,12.,4.8
1979-03-06 18:02:37.530 ,3,0,,0,16.,4.8,6.,4.8,,0,0.,4.8,4.,4.8
1979-03-06 18:02:42.330 ,3,0,,0,6.,4.8,0.,4.8,,0,0.,4.8,6.,4.8
1979-03-06 18:02:47.130 ,4,0,,0,13.,4.8,6.,4.8,,0,0.,4.8,4.,4.8
1979-03-06 18:02:51.930 ,4,0,,0,10.,4.8,6.,4.8,,0,0.,4.8,7.,4.8
1979-03-06 18:02:56.730 ,4,0,,0,21.,4.8,8.,4.8,,0,0.,4.8,6.,4.8
1979-03-06 18:03:01.530 ,4,0,,0,0.,4.8,0.,4.8,,0,0.,4.8,9.,4.8
1979-03-06 18:03:06.330 ,4,0,,0,0.,4.8,0.,4.8,,0,0.,4.8,6.,4.8
1979-03-06 18:03:11.130 ,5,0,,0,1.,4.8,0.,4.8,,0,0.,4.8,3.,4.8
1979-03-06 18:03:15.930 ,5,0,,0,0.,4.8,0.,4.8,,0,0.,4.8,9.,4.8
1979-03-06 18:03:20.730 ,5,0,,0,0.,4.8,0.,4.8,,0,0.,4.8,2.,4.8
1979-03-06 18:03:25.530 ,5,0,,0,7.,4.8,1.,4.8,,0,0.,4.8,4.,4.8
1979-03-06 18:03:30.330 ,5,0,,0,5.,4.8,3.,4.8,,0,0.,4.8,3.,4.8
1979-03-06 18:03:35.130 ,6,0,,0,8.,4.8,4.,4.8,,0,0.,4.8,6.,4.8
1979-03-06 18:03:39.930 ,6,0,,0,6.,4.8,0.,4.8,,0,0.,4.8,4.,4.8
1979-03-06 18:03:44.730 ,6,0,,0,1.,4.8,1.,4.8,,0,0.,4.8,1.,4.8
1979-03-06 18:03:49.530 ,6,0,,0,1.,4.8,0.,4.8,,0,0.,4.8,2.,4.8
1979-03-06 18:03:54.330 ,6,0,,0,1.,4.8,0.,4.8,,0,0.,4.8,0.,4.8
1979-03-06 18:03:59.130 ,7,0,,0,0.,4.8,0.,4.8,,0,0.,4.8,0.,4.8
1979-03-06 18:04:03.930 ,7,0,,0,0.,4.8,0.,4.8,,0,0.,4.8,0.,4.8
1979-03-06 18:04:08.730 ,7,0,,0,0.,4.8,0.,4.8,,0,0.,4.8,0.,4.8
1979-03-06 18:04:13.530 ,7,0,,0,2.,4.8,0.,4.8,,0,0.,4.8,0.,4.8
1979-03-06 18:04:18.330 ,7,0,,0,1.,4.8,0.,4.8,,0,0.,4.8,0.,4.8
1979-03-06 18:04:23.130 ,7,0,,0,5.,4.8,0.,4.8,,0,0.,4.8,0.,4.8
1979-03-06 18:04:27.930 ,7,0,,0,6.,4.8,0.,4.8,,0,0.,4.8,0.,4.8
1979-03-06 18:04:32.730 ,7,0,,0,1.,4.8,0.,4.8,,0,0.,4.8,0.,4.8
1979-03-06 18:04:37.530 ,7,0,,0,0.,4.8,0.,4.8,,0,0.,4.8,0.,4.8
1979-03-06 18:04:42.330 ,7,0,,0,0.,4.8,0.,4.8,,0,0.,4.8,0.,4.8
1979-03-06 18:04:47.130 ,6,0,,0,0.,4.8,0.,4.8,,0,0.,4.8,0.,4.8
1979-03-06 18:04:51.930 ,6,0,,0,0.,4.8,0.,4.8,,0,0.,4.8,0.,4.8
1979-03-06 18:04:56.730 ,6,0,,0,1.,4.8,0.,4.8,,0,0.,4.8,1.,4.8
1979-03-06 18:05:01.530 ,6,0,,0,1.,4.8,1.,4.8,,0,0.,4.8,2.,4.8
1979-03-06 18:05:06.330 ,6,0,,0,2.,4.8,0.,4.8,,0,0.,4.8,2.,4.8
1979-03-06 18:05:11.130 ,5,0,,0,1.,4.8,1.,4.8,,0,0.,4.8,3.,4.8
1979-03-06 18:05:15.930 ,5,0,,0,3.,4.8,0.,4.8,,0,0.,4.8,3.,4.8
1979-03-06 18:05:20.730 ,5,0,,0,11.,4.8,4.,4.8,,0,0.,4.8,3.,4.8
1979-03-06 18:05:25.530 ,5,0,,0,0.,4.8,0.,4.8,,0,0.,4.8,6.,4.8
1979-03-06 18:05:30.330 ,5,0,,0,0.,4.8,0.,4.8,,0,0.,4.8,3.,4.8
1979-03-06 18:05:35.130 ,4,0,,0,0.,4.8,0.,4.8,,0,0.,4.8,7.,4.8
1979-03-06 18:05:39.930 ,4,0,,0,0.,4.8,0.,4.8,,0,0.,4.8,4.,4.8
1979-03-06 18:05:44.730 ,4,0,,0,4.,4.8,0.,4.8,,0,0.,4.8,7.,4.8
1979-03-06 18:05:49.530 ,4,0,,0,14.,4.8,2.,4.8,,0,0.,4.8,2.,4.8
1979-03-06 18:05:54.330 ,4,0,,0,15.,4.8,9.,4.8,,0,0.,4.8,14.,4.8
1979-03-06 18:05:59.130 ,3,0,,0,15.,4.8,5.,4.8,,0,0.,4.8,6.,4.8
1979-03-06 18:06:03.930 ,3,0,,0,15.,4.8,6.,4.8,,0,0.,4.8,7.,4.8
1979-03-06 18:06:08.730 ,3,0,,0,5.,4.8,2.,4.8,,0,0.,4.8,3.,4.8
1979-03-06 18:06:13.530 ,3,0,,0,0.,4.8,0.,4.8,,0,0.,4.8,7.,4.8
1979-03-06 18:06:18.330 ,3,0,,0,0.,4.8,0.,4.8,,0,0.,4.8,2.,4.8
1979-03-06 18:06:23.130 ,2,0,,0,0.,4.8,0.,4.8,,0,0.,4.8,5.,4.8
1979-03-06 18:06:27.930 ,2,0,,0,0.,4.8,0.,4.8,,0,0.,4.8,3.,4.8
1979-03-06 18:06:32.730 ,2,0,,0,2.,4.8,0.,4.8,,0,0.,4.8,1.,4.8
1979-03-06 18:06:37.530 ,2,0,,0,2.,4.8,0.,4.8,,0,0.,4.8,0.,4.8
1979-03-06 18:06:42.330 ,2,0,,0,0.,4.8,0.,4.8,,0,0.,4.8,0.,4.8
1979-03-06 18:06:47.130 ,1,0,,0,1.,4.8,1.,4.8,,0,0.,4.8,0.,4.8
1979-03-06 18:06:51.930 ,1,0,,0,1.,4.8,0.,4.8,,0,0.,4.8,0.,4.8
1979-03-06 18:06:56.730 ,1,0,,0,0.,4.8,0.,4.8,,0,0.,4.8,0.,4.8
1979-03-06 18:07:01.530 ,1,0,,0,0.,4.8,0.,4.8,,0,0.,4.8,0.,4.8
1979-03-06 18:07:06.330 ,1,0,,0,0.,4.8,0.,4.8,,0,0.,4.8,0.,4.8
1979-03-06 18:07:11.130 ,0,0,,0,0.,4.8,0.,4.8,,0,0.,4.8,0.,4.8
1979-03-06 18:07:15.930 ,0,0,,0,1.,4.8,0.,4.8,,0,0.,4.8,1.,4.8
1979-03-06 18:07:20.730 ,0,0,,0,0.,4.8,0.,4.8,,0,0.,4.8,0.,4.8
1979-03-06 18:07:25.530 ,0,0,,0,0.,4.8,0.,4.8,,0,0.,4.8,0.,4.8
1979-03-06 18:07:30.330 ,0,0,,0,0.,4.8,0.,4.8,,0,0.,4.8,0.,4.8
1979-03-06 18:07:35.130 ,0,0,,0,0.,4.8,0.,4.8,,0,0.,4.8,0.,4.8
1979-03-06 18:07:39.930 ,0,0,,0,1.,4.8,0.,4.8,,0,0.,4.8,0.,4.8
1979-03-06 18:07:44.730 ,0,0,,0,2.,4.8,0.,4.8,,0,0.,4.8,0.,4.8
1979-03-06 18:07:49.530 ,0,0,,0,0.,4.8,0.,4.8,,0,0.,4.8,0.,4.8
1979-03-06 18:07:54.330 ,0,0,,0,0.,4.8,0.,4.8,,0,0.,4.8,1.,4.8
1979-03-06 18:07:59.130 ,1,0,,0,0.,4.8,0.,4.8,,0,0.,4.8,0.,4.8
1979-03-06 18:08:03.930 ,1,0,,0,0.,4.8,0.,4.8,,0,0.,4.8,0.,4.8
1979-03-06 18:08:08.730 ,1,0,,0,0.,4.8,0.,4.8,,0,0.,4.8,1.,4.8
1979-03-06 18:08:13.530 ,1,0,,0,3.,4.8,1.,4.8,,0,0.,4.8,0.,4.8
1979-03-06 18:08:18.330 ,1,0,,0,1.,4.8,0.,4.8,,0,0.,4.8,1.,4.8
1979-03-06 18:08:23.130 ,2,0,,0,1.,4.8,0.,4.8,,0,0.,4.8,0.,4.8
1979-03-06 18:08:27.930 ,2,0,,0,1.,4.8,0.,4.8,,0,0.,4.8,1.,4.8
1979-03-06 18:08:32.730 ,2,0,,0,4.,4.8,0.,4.8,,0,0.,4.8,2.,4.8
1979-03-06 18:08:37.530 ,2,0,,0,0.,4.8,0.,4.8,,0,0.,4.8,2.,4.8
1979-03-06 18:08:42.330 ,2,0,,0,0.,4.8,0.,4.8,,0,0.,4.8,1.,4.8
1979-03-06 18:08:47.130 ,3,0,,0,1.,4.8,0.,4.8,,0,0.,4.8,5.,4.8
1979-03-06 18:08:51.930 ,3,0,,0,0.,4.8,0.,4.8,,0,0.,4.8,1.,4.8
1979-03-06 18:08:56.730 ,3,0,,0,1.,4.8,1.,4.8,,0,0.,4.8,3.,4.8
1979-03-06 18:09:01.530 ,3,0,,0,17.,4.8,5.,4.8,,0,0.,4.8,6.,4.8
1979-03-06 18:09:06.330 ,3,0,,0,11.,4.8,5.,4.8,,0,0.,4.8,7.,4.8
1979-03-06 18:09:11.130 ,4,0,,0,8.,4.8,1.,4.8,,0,0.,4.8,2.,4.8
1979-03-06 18:09:15.930 ,4,0,,0,16.,4.8,6.,4.8,,0,0.,4.8,3.,4.8
1979-03-06 18:09:20.730 ,4,0,,0,17.,4.8,8.,4.8,,0,0.,4.8,10.,4.8
1979-03-06 18:09:25.530 ,4,0,,0,0.,4.8,0.,4.8,,0,0.,4.8,8.,4.8
1979-03-06 18:09:30.330 ,4,0,,0,0.,4.8,0.,4.8,,0,0.,4.8,9.,4.8
1979-03-06 18:09:35.130 ,5,0,,0,0.,4.8,0.,4.8,,0,0.,4.8,3.,4.8
1979-03-06 18:09:39.930 ,5,0,,0,0.,4.8,0.,4.8,,0,0.,4.8,7.,4.8
1979-03-06 18:09:44.730 ,5,0,,0,2.,4.8,2.,4.8,,0,0.,4.8,7.,4.8
1979-03-06 18:09:49.530 ,5,0,,0,15.,4.8,6.,4.8,,0,0.,4.8,6.,4.8
1979-03-06 18:09:54.330 ,5,0,,0,16.,4.8,7.,4.8,,0,0.,4.8,7.,4.8
1979-03-06 18:09:59.130 ,6,0,,0,18.,4.8,6.,4.8,,0,0.,4.8,6.,4.8
1979-03-06 18:10:03.930 ,6,0,,0,14.,4.8,7.,4.8,,0,0.,4.8,8.,4.8
1979-03-06 18:10:08.730 ,6,0,,0,9.,4.8,4.,4.8,,0,0.,4.8,4.,4.8
1979-03-06 18:10:13.530 ,6,0,,0,0.,4.8,0.,4.8,,0,0.,4.8,3.,4.8
1979-03-06 18:10:18.330 ,6,0,,0,0.,4.8,0.,4.8,,0,0.,4.8,1.,4.8
1979-03-06 18:10:23.130 ,7,0,,0,1.,4.8,0.,4.8,,0,0.,4.8,1.,4.8
1979-03-06 18:10:27.930 ,7,0,,0,0.,4.8,0.,4.8,,0,0.,4.8,1.,4.8
1979-03-06 18:10:32.730 ,7,0,,0,1.,4.8,0.,4.8,,0,0.,4.8,0.,4.8
1979-03-06 18:10:37.530 ,7,0,,0,4.,4.8,0.,4.8,,0,0.,4.8,0.,4.8
1979-03-06 18:10:42.330 ,7,0,,0,6.,4.8,0.,4.8,,0,0.,4.8,0.,4.8
1979-03-06 18:10:47.130 ,7,0,,0,4.,4.8,0.,4.8,,0,0.,4.8,0.,4.8
1979-03-06 18:10:51.930 ,7,0,,0,4.,4.8,0.,4.8,,0,0.,4.8,0.,4.8
1979-03-06 18:10:56.730 ,7,0,,0,5.,4.8,0.,4.8,,0,0.,4.8,0.,4.8
1979-03-06 18:11:01.530 ,7,0,,0,0.,4.8,0.,4.8,,0,0.,4.8,0.,4.8
1979-03-06 18:11:06.330 ,7,0,,0,0.,4.8,0.,4.8,,0,0.,4.8,0.,4.8
1979-03-06 18:11:11.130 ,6,0,,0,0.,4.8,0.,4.8,,0,0.,4.8,0.,4.8
1979-03-06 18:11:15.930 ,6,0,,0,0.,4.8,0.,4.8,,0,0.,4.8,0.,4.8
1979-03-06 18:11:20.730 ,6,0,,0,1.,4.8,0.,4.8,,0,0.,4.8,2.,4.8
1979-03-06 18:11:25.530 ,6,0,,0,2.,4.8,0.,4.8,,0,0.,4.8,2.,4.8
1979-03-06 18:11:30.330 ,6,0,,0,1.,4.8,0.,4.8,,0,0.,4.8,0.,4.8
1979-03-06 18:11:35.130 ,5,0,,0,2.,4.8,0.,4.8,,0,0.,4.8,1.,4.8
1979-03-06 18:11:39.930 ,5,0,,0,7.,4.8,2.,4.8,,0,0.,4.8,4.,4.8
1979-03-06 18:11:44.730 ,5,0,,0,10.,4.8,4.,4.8,,0,0.,4.8,6.,4.8
1979-03-06 18:11:49.530 ,5,0,,0,0.,4.8,0.,4.8,,0,0.,4.8,9.,4.8
1979-03-06 18:11:54.330 ,5,0,,0,0.,4.8,0.,4.8,,0,0.,4.8,7.,4.8
1979-03-06 18:11:59.130 ,4,0,,0,0.,4.8,0.,4.8,,0,0.,4.8,5.,4.8
1979-03-06 18:12:03.930 ,4,0,,0,0.,4.8,0.,4.8,,0,0.,4.8,9.,4.8
1979-03-06 18:12:08.730 ,4,0,,0,1.,4.8,0.,4.8,,0,0.,4.8,9.,4.8
1979-03-06 18:12:13.530 ,4,0,,0,19.,4.8,6.,4.8,,0,0.,4.8,7.,4.8
1979-03-06 18:12:18.330 ,4,0,,0,12.,4.8,4.,4.8,,0,0.,4.8,11.,4.8
1979-03-06 18:12:23.130 ,3,0,,0,20.,4.8,9.,4.8,,0,0.,4.8,4.,4.8
1979-03-06 18:12:27.930 ,3,0,,0,11.,4.8,4.,4.8,,0,0.,4.8,9.,4.8
1979-03-06 18:12:32.730 ,3,0,,0,9.,4.8,5.,4.8,,0,0.,4.8,8.,4.8
1979-03-06 18:12:37.530 ,3,0,,0,0.,4.8,0.,4.8,,0,0.,4.8,9.,4.8
1979-03-06 18:12:42.330 ,3,0,,0,0.,4.8,0.,4.8,,0,0.,4.8,10.,4.8
1979-03-06 18:12:47.130 ,2,0,,0,0.,4.8,0.,4.8,,0,0.,4.8,8.,4.8
1979-03-06 18:12:51.930 ,2,0,,0,0.,4.8,0.,4.8,,0,0.,4.8,2.,4.8
1979-03-06 18:12:56.730 ,2,0,,0,1.,4.8,0.,4.8,,0,0.,4.8,0.,4.8
1979-03-06 18:13:01.530 ,2,0,,0,4.,4.8,2.,4.8,,0,0.,4.8,1.,4.8
1979-03-06 18:13:06.330 ,2,0,,0,2.,4.8,0.,4.8,,0,0.,4.8,1.,4.8
1979-03-06 18:13:11.130 ,1,0,,0,1.,4.8,0.,4.8,,0,0.,4.8,3.,4.8
1979-03-06 18:13:15.930 ,1,0,,0,3.,4.8,1.,4.8,,0,0.,4.8,1.,4.8
1979-03-06 18:13:20.730 ,1,0,,0,1.,4.8,0.,4.8,,0,0.,4.8,0.,4.8
1979-03-06 18:13:25.530 ,1,0,,0,0.,4.8,0.,4.8,,0,0.,4.8,0.,4.8
1979-03-06 18:13:30.330 ,1,0,,0,0.,4.8,0.,4.8,,0,0.,4.8,0.,4.8
1979-03-06 18:13:35.130 ,0,0,,0,0.,4.8,0.,4.8,,0,0.,4.8,1.,4.8
1979-03-06 18:13:39.930 ,0,0,,0,1.,4.8,0.,4.8,,0,0.,4.8,0.,4.8
1979-03-06 18:13:44.730 ,0,0,,0,1.,4.8,0.,4.8,,0,0.,4.8,0.,4.8
1979-03-06 18:13:49.530 ,0,0,,0,1.,4.8,0.,4.8,,0,0.,4.8,0.,4.8
1979-03-06 18:13:54.330 ,0,0,,0,0.,4.8,0.,4.8,,0,0.,4.8,0.,4.8
1979-03-06 18:13:59.130 ,0,0,,0,0.,4.8,0.,4.8,,0,0.,4.8,0.,4.8
1979-03-06 18:14:03.930 ,0,0,,0,1.,4.8,0.,4.8,,0,0.,4.8,0.,4.8
1979-03-06 18:14:08.730 ,0,0,,0,0.,4.8,0.,4.8,,0,0.,4.8,0.,4.8
1979-03-06 18:14:13.530 ,0,0,,0,0.,4.8,0.,4.8,,0,0.,4.8,0.,4.8
1979-03-06 18:14:18.330 ,0,0,,0,0.,4.8,0.,4.8,,0,0.,4.8,0.,4.8
1979-03-06 18:14:23.130 ,1,0,,0,1.,4.8,0.,4.8,,0,0.,4.8,0.,4.8
1979-03-06 18:14:27.930 ,1,0,,0,0.,4.8,0.,4.8,,0,0.,4.8,0.,4.8
1979-03-06 18:14:32.730 ,1,0,,0,0.,4.8,0.,4.8,,0,0.,4.8,0.,4.8
1979-03-06 18:14:37.530 ,1,0,,0,0.,4.8,0.,4.8,,0,0.,4.8,0.,4.8
1979-03-06 18:14:42.330 ,1,0,,0,0.,4.8,0.,4.8,,0,0.,4.8,0.,4.8
1979-03-06 18:14:47.130 ,2,0,,0,0.,4.8,0.,4.8,,0,0.,4.8,0.,4.8
1979-03-06 18:14:51.930 ,2,0,,0,0.,4.8,0.,4.8,,0,0.,4.8,0.,4.8
1979-03-06 18:14:56.730 ,2,0,,0,1.,4.8,0.,4.8,,0,0.,4.8,1.,4.8
1979-03-06 18:15:01.530 ,2,0,,0,0.,4.8,0.,4.8,,0,0.,4.8,1.,4.8
1979-03-06 18:15:06.330 ,2,0,,0,0.,4.8,0.,4.8,,0,0.,4.8,0.,4.8
1979-03-06 18:15:11.130 ,3,0,,0,1.,4.8,0.,4.8,,0,0.,4.8,0.,4.8
1979-03-06 18:15:15.930 ,3,0,,0,0.,4.8,0.,4.8,,0,0.,4.8,0.,4.8
1979-03-06 18:15:20.730 ,3,0,,0,1.,4.8,1.,4.8,,0,0.,4.8,1.,4.8
1979-03-06 18:15:25.530 ,3,0,,0,2.,4.8,1.,4.8,,0,0.,4.8,7.,4.8
1979-03-06 18:15:30.330 ,3,0,,0,7.,4.8,3.,4.8,,0,0.,4.8,5.,4.8
1979-03-06 18:15:35.130 ,4,0,,0,10.,4.8,3.,4.8,,0,0.,4.8,6.,4.8
1979-03-06 18:15:39.930 ,4,0,,0,7.,4.8,2.,4.8,,0,0.,4.8,7.,4.8
1979-03-06 18:15:44.730 ,4,0,,0,6.,4.8,3.,4.8,,0,0.,4.8,9.,4.8
1979-03-06 18:15:49.530 ,4,0,,0,0.,4.8,0.,4.8,,0,0.,4.8,9.,4.8
1979-03-06 18:15:54.330 ,4,0,,0,0.,4.8,0.,4.8,,0,0.,4.8,4.,4.8
1979-03-06 18:15:59.130 ,5,0,,0,0.,4.8,0.,4.8,,0,0.,4.8,7.,4.8
1979-03-06 18:16:03.930 ,5,0,,0,0.,4.8,0.,4.8,,0,0.,4.8,5.,4.8
1979-03-06 18:16:08.730 ,5,0,,0,5.,4.8,2.,4.8,,0,0.,4.8,5.,4.8
1979-03-06 18:16:13.530 ,5,0,,0,8.,4.8,4.,4.8,,0,0.,4.8,7.,4.8
1979-03-06 18:16:18.330 ,5,0,,0,16.,4.8,11.,4.8,,0,0.,4.8,1.,4.8
1979-03-06 18:16:23.130 ,6,0,,0,16.,4.8,7.,4.8,,0,0.,4.8,2.,4.8
1979-03-06 18:16:27.930 ,6,0,,0,12.,4.8,7.,4.8,,0,0.,4.8,2.,4.8
1979-03-06 18:16:32.730 ,6,0,,0,11.,4.8,4.,4.8,,0,0.,4.8,8.,4.8
1979-03-06 18:16:37.530 ,6,0,,0,0.,4.8,0.,4.8,,0,0.,4.8,1.,4.8
1979-03-06 18:16:42.330 ,6,0,,0,0.,4.8,0.,4.8,,0,0.,4.8,2.,4.8
1979-03-06 18:16:47.130 ,7,0,,0,0.,4.8,0.,4.8,,0,0.,4.8,6.,4.8
1979-03-06 18:16:51.930 ,7,0,,0,0.,4.8,0.,4.8,,0,0.,4.8,7.,4.8
1979-03-06 18:16:56.730 ,7,0,,0,0.,4.8,0.,4.8,,0,0.,4.8,0.,4.8
1979-03-06 18:17:01.530 ,7,0,,0,2.,4.8,0.,4.8,,0,0.,4.8,0.,4.8
1979-03-06 18:17:06.330 ,7,0,,0,5.,4.8,0.,4.8,,0,0.,4.8,0.,4.8
1979-03-06 18:17:11.130 ,7,0,,0,4.,4.8,0.,4.8,,0,0.,4.8,0.,4.8
1979-03-06 18:17:15.930 ,7,0,,0,4.,4.8,0.,4.8,,0,0.,4.8,0.,4.8
1979-03-06 18:17:20.730 ,7,0,,0,2.,4.8,0.,4.8,,0,0.,4.8,0.,4.8
1979-03-06 18:17:25.530 ,7,0,,0,0.,4.8,0.,4.8,,0,0.,4.8,0.,4.8
1979-03-06 18:17:30.330 ,7,0,,0,0.,4.8,0.,4.8,,0,0.,4.8,0.,4.8
1979-03-06 18:17:35.130 ,6,0,,0,0.,4.8,0.,4.8,,0,0.,4.8,0.,4.8
1979-03-06 18:17:39.930 ,6,0,,0,0.,4.8,0.,4.8,,0,0.,4.8,1.,4.8
1979-03-06 18:17:44.730 ,6,0,,0,2.,4.8,0.,4.8,,0,0.,4.8,6.,4.8
1979-03-06 18:17:49.530 ,6,0,,0,16.,4.8,6.,4.8,,0,0.,4.8,6.,4.8
1979-03-06 18:17:54.330 ,6,0,,0,9.,4.8,2.,4.8,,0,0.,4.8,4.,4.8
1979-03-06 18:17:59.130 ,5,0,,0,9.,4.8,1.,4.8,,0,0.,4.8,2.,4.8
1979-03-06 18:18:03.930 ,5,0,,0,16.,4.8,5.,4.8,,0,0.,4.8,5.,4.8
1979-03-06 18:18:08.730 ,5,0,,0,17.,4.8,8.,4.8,,0,0.,4.8,10.,4.8
1979-03-06 18:18:13.530 ,5,0,,0,0.,4.8,0.,4.8,,0,0.,4.8,10.,4.8
1979-03-06 18:18:18.330 ,5,0,,0,0.,4.8,0.,4.8,,0,0.,4.8,8.,4.8
1979-03-06 18:18:23.130 ,4,0,,0,0.,4.8,0.,4.8,,0,0.,4.8,9.,4.8
1979-03-06 18:18:27.930 ,4,0,,0,0.,4.8,0.,4.8,,0,0.,4.8,12.,4.8
1979-03-06 18:18:32.730 ,4,0,,0,3.,4.8,1.,4.8,,0,0.,4.8,12.,4.8
1979-03-06 18:18:37.530 ,4,0,,0,29.,4.8,14.,4.8,,0,0.,4.8,12.,4.8
1979-03-06 18:18:42.330 ,4,0,,0,28.,4.8,10.,4.8,,0,0.,4.8,8.,4.8
1979-03-06 18:18:47.130 ,3,0,,0,35.,4.8,11.,4.8,,0,0.,4.8,11.,4.8
1979-03-06 18:18:51.930 ,3,0,,0,27.,4.8,9.,4.8,,0,0.,4.8,7.,4.8
1979-03-06 18:18:56.730 ,3,0,,0,17.,4.8,7.,4.8,,0,0.,4.8,9.,4.8
1979-03-06 18:19:01.530 ,3,0,,0,0.,4.8,0.,4.8,,0,0.,4.8,3.,4.8
1979-03-06 18:19:06.330 ,3,0,,0,0.,4.8,0.,4.8,,0,0.,4.8,10.,4.8
1979-03-06 18:19:11.130 ,2,0,,0,0.,4.8,0.,4.8,,0,0.,4.8,8.,4.8
1979-03-06 18:19:15.930 ,2,0,,0,0.,4.8,0.,4.8,,0,0.,4.8,9.,4.8
1979-03-06 18:19:20.730 ,2,0,,0,3.,4.8,1.,4.8,,0,0.,4.8,5.,4.8
1979-03-06 18:19:25.530 ,2,0,,0,3.,4.8,1.,4.8,,0,0.,4.8,4.,4.8
1979-03-06 18:19:30.330 ,2,0,,0,9.,4.8,2.,4.8,,0,0.,4.8,3.,4.8
1979-03-06 18:19:35.130 ,1,0,,0,16.,4.8,6.,4.8,,0,0.,4.8,3.,4.8
1979-03-06 18:19:39.930 ,1,0,,0,10.,4.8,5.,4.8,,0,0.,4.8,6.,4.8
1979-03-06 18:19:44.730 ,1,0,,0,4.,4.8,0.,4.8,,0,0.,4.8,3.,4.8
1979-03-06 18:19:49.530 ,1,0,,0,0.,4.8,0.,4.8,,0,0.,4.8,0.,4.8
1979-03-06 18:19:54.330 ,1,0,,0,0.,4.8,0.,4.8,,0,0.,4.8,0.,4.8
1979-03-06 18:19:59.130 ,0,0,,0,0.,4.8,0.,4.8,,0,0.,4.8,4.,4.8
1979-03-06 18:20:03.930 ,0,0,,0,0.,4.8,0.,4.8,,0,0.,4.8,1.,4.8
1979-03-06 18:20:08.730 ,0,0,,0,0.,4.8,0.,4.8,,0,0.,4.8,2.,4.8
1979-03-06 18:20:13.530 ,0,0,,0,9.,4.8,2.,4.8,,0,0.,4.8,2.,4.8
1979-03-06 18:20:18.330 ,0,0,,0,6.,4.8,3.,4.8,,0,0.,4.8,3.,4.8
1979-03-06 18:20:23.130 ,0,0,,0,7.,4.8,3.,4.8,,0,0.,4.8,2.,4.8
1979-03-06 18:20:27.930 ,0,0,,0,10.,4.8,5.,4.8,,0,0.,4.8,4.,4.8
1979-03-06 18:20:32.730 ,0,0,,0,9.,4.8,2.,4.8,,0,0.,4.8,3.,4.8
1979-03-06 18:20:37.530 ,0,0,,0,0.,4.8,0.,4.8,,0,0.,4.8,3.,4.8
1979-03-06 18:20:42.330 ,0,0,,0,0.,4.8,0.,4.8,,0,0.,4.8,1.,4.8
1979-03-06 18:20:47.130 ,1,0,,0,0.,4.8,0.,4.8,,0,0.,4.8,3.,4.8
1979-03-06 18:20:51.930 ,1,0,,0,0.,4.8,0.,4.8,,0,0.,4.8,4.,4.8
1979-03-06 18:20:56.730 ,1,0,,0,1.,4.8,0.,4.8,,0,0.,4.8,4.,4.8
1979-03-06 18:21:01.530 ,1,0,,0,9.,4.8,3.,4.8,,0,0.,4.8,3.,4.8
1979-03-06 18:21:06.330 ,1,0,,0,6.,4.8,0.,4.8,,0,0.,4.8,7.,4.8
1979-03-06 18:21:11.130 ,2,0,,0,15.,4.8,6.,4.8,,0,0.,4.8,5.,4.8
1979-03-06 18:21:15.930 ,2,0,,0,18.,4.8,9.,4.8,,0,0.,4.8,5.,4.8
1979-03-06 18:21:20.730 ,2,0,,0,17.,4.8,6.,4.8,,0,0.,4.8,12.,4.8
1979-03-06 18:21:25.530 ,2,0,,0,0.,4.8,0.,4.8,,0,0.,4.8,15.,4.8
1979-03-06 18:21:30.330 ,2,0,,0,0.,4.8,0.,4.8,,0,0.,4.8,6.,4.8
1979-03-06 18:21:35.130 ,3,0,,0,0.,4.8,0.,4.8,,0,0.,4.8,7.,4.8
1979-03-06 18:21:39.930 ,3,0,,0,0.,4.8,0.,4.8,,0,0.,4.8,7.,4.8
1979-03-06 18:21:44.730 ,3,0,,0,2.,4.8,1.,4.8,,0,0.,4.8,14.,4.8
1979-03-06 18:21:49.530 ,3,0,,0,24.,4.8,6.,4.8,,0,0.,4.8,9.,4.8
1979-03-06 18:21:54.330 ,3,0,,0,18.,4.8,5.,4.8,,0,0.,4.8,11.,4.8
1979-03-06 18:21:59.130 ,4,0,,0,23.,4.8,12.,4.8,,0,0.,4.8,10.,4.8
1979-03-06 18:22:03.930 ,4,0,,0,22.,4.8,6.,4.8,,0,0.,4.8,10.,4.8
1979-03-06 18:22:08.730 ,4,0,,0,10.,4.8,2.,4.8,,0,0.,4.8,4.,4.8
1979-03-06 18:22:13.530 ,4,0,,0,0.,4.8,0.,4.8,,0,0.,4.8,4.,4.8
1979-03-06 18:22:18.330 ,4,0,,0,0.,4.8,0.,4.8,,0,0.,4.8,5.,4.8
1979-03-06 18:22:23.130 ,5,0,,0,0.,4.8,0.,4.8,,0,0.,4.8,13.,4.8
1979-03-06 18:22:27.930 ,5,0,,0,0.,4.8,0.,4.8,,0,0.,4.8,15.,4.8
1979-03-06 18:22:32.730 ,5,0,,0,3.,4.8,0.,4.8,,0,0.,4.8,4.,4.8
1979-03-06 18:22:37.530 ,5,0,,0,15.,4.8,3.,4.8,,0,0.,4.8,6.,4.8
1979-03-06 18:22:42.330 ,5,0,,0,16.,4.8,5.,4.8,,0,0.,4.8,8.,4.8
1979-03-06 18:22:47.130 ,6,0,,0,12.,4.8,2.,4.8,,0,0.,4.8,7.,4.8
1979-03-06 18:22:51.930 ,6,0,,0,12.,4.8,5.,4.8,,0,0.,4.8,6.,4.8
1979-03-06 18:22:56.730 ,6,0,,0,6.,4.8,2.,4.8,,0,0.,4.8,6.,4.8
1979-03-06 18:23:01.530 ,6,0,,0,0.,4.8,0.,4.8,,0,0.,4.8,6.,4.8
1979-03-06 18:23:06.330 ,6,0,,0,1.,4.8,0.,4.8,,0,0.,4.8,1.,4.8
1979-03-06 18:23:11.130 ,7,0,,0,0.,4.8,0.,4.8,,0,0.,4.8,3.,4.8
1979-03-06 18:23:15.930 ,7,0,,0,0.,4.8,0.,4.8,,0,0.,4.8,4.,4.8
1979-03-06 18:23:20.730 ,7,0,,0,0.,4.8,0.,4.8,,0,0.,4.8,0.,4.8
1979-03-06 18:23:25.530 ,7,0,,0,6.,4.8,0.,4.8,,0,0.,4.8,0.,4.8
1979-03-06 18:23:30.330 ,7,0,,0,9.,4.8,0.,4.8,,0,0.,4.8,0.,4.8
1979-03-06 18:23:35.130 ,7,0,,0,7.,4.8,0.,4.8,,0,0.,4.8,0.,4.8
1979-03-06 18:23:39.930 ,7,0,,0,9.,4.8,0.,4.8,,0,0.,4.8,0.,4.8
1979-03-06 18:23:44.730 ,7,0,,0,6.,4.8,0.,4.8,,0,0.,4.8,0.,4.8
1979-03-06 18:23:49.530 ,7,0,,0,0.,4.8,0.,4.8,,0,0.,4.8,0.,4.8
1979-03-06 18:23:54.330 ,7,0,,0,0.,4.8,0.,4.8,,0,0.,4.8,0.,4.8
1979-03-06 18:23:59.130 ,6,0,,0,1.,4.8,0.,4.8,,0,0.,4.8,0.,4.8
1979-03-06 18:24:03.930 ,6,0,,0,0.,4.8,0.,4.8,,0,0.,4.8,0.,4.8
1979-03-06 18:24:08.730 ,6,0,,0,1.,4.8,0.,4.8,,0,0.,4.8,2.,4.8
1979-03-06 18:24:13.530 ,6,0,,0,11.,4.8,4.,4.8,,0,0.,4.8,1.,4.8
1979-03-06 18:24:18.330 ,6,0,,0,12.,4.8,4.,4.8,,0,0.,4.8,2.,4.8
1979-03-06 18:24:23.130 ,5,0,,0,9.,4.8,4.,4.8,,0,0.,4.8,3.,4.8
1979-03-06 18:24:27.930 ,5,0,,0,6.,4.8,2.,4.8,,0,0.,4.8,3.,4.8
1979-03-06 18:24:32.730 ,5,0,,0,6.,4.8,2.,4.8,,0,0.,4.8,4.,4.8
1979-03-06 18:24:37.530 ,5,0,,0,1.,4.8,0.,4.8,,0,0.,4.8,5.,4.8
1979-03-06 18:24:42.330 ,5,0,,0,0.,4.8,0.,4.8,,0,0.,4.8,6.,4.8
1979-03-06 18:24:47.130 ,4,0,,0,0.,4.8,0.,4.8,,0,0.,4.8,4.,4.8
1979-03-06 18:24:51.930 ,4,0,,0,0.,4.8,0.,4.8,,0,0.,4.8,6.,4.8
1979-03-06 18:24:56.730 ,4,0,,0,2.,4.8,1.,4.8,,0,0.,4.8,1.,4.8
1979-03-06 18:25:01.530 ,4,0,,0,8.,4.8,4.,4.8,,0,0.,4.8,3.,4.8
1979-03-06 18:25:06.330 ,4,0,,0,9.,4.8,1.,4.8,,0,0.,4.8,10.,4.8
1979-03-06 18:25:11.130 ,3,0,,0,10.,4.8,4.,4.8,,0,0.,4.8,2.,4.8
1979-03-06 18:25:15.930 ,3,0,,0,13.,4.8,5.,4.8,,0,0.,4.8,3.,4.8
1979-03-06 18:25:20.730 ,3,0,,0,7.,4.8,3.,4.8,,0,0.,4.8,7.,4.8
1979-03-06 18:25:25.530 ,3,0,,0,0.,4.8,0.,4.8,,0,0.,4.8,1.,4.8
1979-03-06 18:25:30.330 ,3,0,,0,0.,4.8,0.,4.8,,0,0.,4.8,3.,4.8
1979-03-06 18:25:35.130 ,2,0,,0,0.,4.8,0.,4.8,,0,0.,4.8,4.,4.8
1979-03-06 18:25:39.930 ,2,0,,0,1.,4.8,0.,4.8,,0,0.,4.8,4.,4.8
1979-03-06 18:25:44.730 ,2,0,,0,1.,4.8,0.,4.8,,0,0.,4.8,7.,4.8
1979-03-06 18:25:49.530 ,2,0,,0,13.,4.8,3.,4.8,,0,0.,4.8,6.,4.8
1979-03-06 18:25:54.330 ,2,0,,0,12.,4.8,4.,4.8,,0,0.,4.8,6.,4.8
1979-03-06 18:25:59.130 ,1,0,,0,12.,4.8,4.,4.8,,0,0.,4.8,7.,4.8
1979-03-06 18:26:03.930 ,1,0,,0,13.,4.8,4.,4.8,,0,0.,4.8,5.,4.8
1979-03-06 18:26:08.730 ,1,0,,0,6.,4.8,3.,4.8,,0,0.,4.8,2.,4.8
1979-03-06 18:26:13.530 ,1,0,,0,0.,4.8,0.,4.8,,0,0.,4.8,2.,4.8
1979-03-06 18:26:18.330 ,1,0,,0,0.,4.8,0.,4.8,,0,0.,4.8,1.,4.8
1979-03-06 18:26:23.130 ,0,0,,0,0.,4.8,0.,4.8,,0,0.,4.8,2.,4.8
1979-03-06 18:26:27.930 ,0,0,,0,0.,4.8,0.,4.8,,0,0.,4.8,1.,4.8
1979-03-06 18:26:32.730 ,0,0,,0,0.,4.8,0.,4.8,,0,0.,4.8,0.,4.8
1979-03-06 18:26:37.530 ,0,0,,0,0.,4.8,0.,4.8,,0,0.,4.8,0.,4.8
1979-03-06 18:26:42.330 ,0,0,,0,0.,4.8,0.,4.8,,0,0.,4.8,0.,4.8
1979-03-06 18:26:47.130 ,0,0,,0,0.,4.8,0.,4.8,,0,0.,4.8,0.,4.8
1979-03-06 18:26:51.930 ,0,0,,0,0.,4.8,0.,4.8,,0,0.,4.8,0.,4.8
1979-03-06 18:26:56.730 ,0,0,,0,0.,4.8,0.,4.8,,0,0.,4.8,0.,4.8
1979-03-06 18:27:01.530 ,0,0,,0,0.,4.8,0.,4.8,,0,0.,4.8,1.,4.8
1979-03-06 18:27:06.330 ,0,0,,0,0.,4.8,0.,4.8,,0,0.,4.8,0.,4.8
1979-03-06 18:27:11.130 ,1,0,,0,0.,4.8,0.,4.8,,0,0.,4.8,1.,4.8
1979-03-06 18:27:15.930 ,1,0,,0,0.,4.8,0.,4.8,,0,0.,4.8,0.,4.8
1979-03-06 18:27:20.730 ,1,0,,0,1.,4.8,0.,4.8,,0,0.,4.8,2.,4.8
1979-03-06 18:27:25.530 ,1,0,,0,0.,4.8,0.,4.8,,0,0.,4.8,1.,4.8
1979-03-06 18:27:30.330 ,1,0,,0,1.,4.8,0.,4.8,,0,0.,4.8,0.,4.8
1979-03-06 18:27:35.130 ,2,0,,0,0.,4.8,0.,4.8,,0,0.,4.8,0.,4.8
1979-03-06 18:27:39.930 ,2,0,,0,1.,4.8,0.,4.8,,0,0.,4.8,2.,4.8
1979-03-06 18:27:44.730 ,2,0,,0,1.,4.8,0.,4.8,,0,0.,4.8,3.,4.8
1979-03-06 18:27:49.530 ,2,0,,0,0.,4.8,0.,4.8,,0,0.,4.8,4.,4.8
1979-03-06 18:27:54.330 ,2,0,,0,0.,4.8,0.,4.8,,0,0.,4.8,0.,4.8
1979-03-06 18:27:59.130 ,3,0,,0,1.,4.8,0.,4.8,,0,0.,4.8,3.,4.8
1979-03-06 18:28:03.930 ,3,0,,0,0.,4.8,0.,4.8,,0,0.,4.8,3.,4.8
1979-03-06 18:28:08.730 ,3,0,,0,2.,4.8,0.,4.8,,0,0.,4.8,4.,4.8
1979-03-06 18:28:13.530 ,3,0,,0,2.,4.8,0.,4.8,,0,0.,4.8,3.,4.8
1979-03-06 18:28:18.330 ,3,0,,0,9.,4.8,5.,4.8,,0,0.,4.8,8.,4.8
1979-03-06 18:28:23.130 ,4,0,,0,5.,4.8,1.,4.8,,0,0.,4.8,3.,4.8
1979-03-06 18:28:27.930 ,4,0,,0,1.,4.8,1.,4.8,,0,0.,4.8,3.,4.8
1979-03-06 18:28:32.730 ,4,0,,0,4.,4.8,3.,4.8,,0,0.,4.8,5.,4.8
1979-03-06 18:28:37.530 ,4,0,,0,1.,4.8,0.,4.8,,0,0.,4.8,1.,4.8
1979-03-06 18:28:42.330 ,4,0,,0,0.,4.8,0.,4.8,,0,0.,4.8,2.,4.8
1979-03-06 18:28:47.130 ,5,0,,0,0.,4.8,0.,4.8,,0,0.,4.8,4.,4.8
1979-03-06 18:28:51.930 ,5,0,,0,0.,4.8,0.,4.8,,0,0.,4.8,4.,4.8
1979-03-06 18:28:56.730 ,5,0,,0,1.,4.8,0.,4.8,,0,0.,4.8,0.,4.8
1979-03-06 18:29:01.530 ,5,0,,0,4.,4.8,1.,4.8,,0,0.,4.8,9.,4.8
1979-03-06 18:29:06.330 ,5,0,,0,4.,4.8,3.,4.8,,0,0.,4.8,3.,4.8
1979-03-06 18:29:11.130 ,6,0,,0,6.,4.8,1.,4.8,,0,0.,4.8,7.,4.8
1979-03-06 18:29:15.930 ,6,0,,0,6.,4.8,2.,4.8,,0,0.,4.8,2.,4.8
1979-03-06 18:29:20.730 ,6,0,,0,1.,4.8,0.,4.8,,0,0.,4.8,0.,4.8
1979-03-06 18:29:25.530 ,6,0,,0,0.,4.8,0.,4.8,,0,0.,4.8,2.,4.8
1979-03-06 18:29:30.330 ,6,0,,0,0.,4.8,0.,4.8,,0,0.,4.8,0.,4.8
1979-03-06 18:29:35.130 ,7,0,,0,0.,4.8,0.,4.8,,0,0.,4.8,1.,4.8
1979-03-06 18:29:39.930 ,7,0,,0,0.,4.8,0.,4.8,,0,0.,4.8,2.,4.8
1979-03-06 18:29:44.730 ,7,0,,0,1.,4.8,0.,4.8,,0,0.,4.8,0.,4.8
1979-03-06 18:29:49.530 ,7,0,,0,5.,4.8,0.,4.8,,0,0.,4.8,0.,4.8
1979-03-06 18:29:54.330 ,7,0,,0,3.,4.8,0.,4.8,,0,0.,4.8,0.,4.8
1979-03-06 18:29:59.130 ,7,0,,0,6.,4.8,0.,4.8,,0,0.,4.8,0.,4.8
1979-03-06 18:30:03.930 ,7,0,,0,7.,4.8,0.,4.8,,0,0.,4.8,0.,4.8